Tracking 20710 objects as of 30-May-2020
HD Live streaming from Space Station
objects crossing your sky now

FENGYUN 1C DEB

Track FENGYUN 1C DEB now!
10-day predictions


NORAD ID: 32368
Int'l Code: 1999-025CZM
Perigee: 712.8 km
Apogee: 1,142.0 km
Inclination: 97.8 °
Period: 103.4 minutes
Semi major axis: 7298 km
RCS: 0.0082 m2 (small)
Launch date: May 10, 1999
Source: People's Republic of China (PRC)
Launch site: Taiyaun Space Center, China (TSC)

Note: This is SATELLITE DEBRIS
aabbcc
Your satellite tracking list
Your tracking list is empty




NASA's NSSDC Master Catalog

Two Line Element Set (TLE):
1 32368U 99025CZM 20150.77573860 +.00000947 +00000-0 +53682-3 0  9995
2 32368 097.8220 150.5719 0294007 240.1493 117.0155 13.92386013310656
Source of the keplerian elements: AFSPC